Bandarabbass, Iran

6:38 AM +0430 on April 27, 2018 (GMT +0430)
Bandar Abbass International

Weather History for OIKB - February, 2013

Change the Weather History Date:

Saturday, February 16, 2013

  Actual Average Record
Temperature  
Mean Temperature 64 °F -  
Max Temperature 77 °F 79 °F - ()
Min Temperature 51 °F 61 °F - ()
Degree Days  
Heating Degree Days 1    
Growing Degree Days 14 (Base 50)    
Moisture  
Dew Point 50 °F    
Average Humidity 54    
Maximum Humidity 88    
Minimum Humidity 22    
Precipitation  
Precipitation 0.00 in 0.05 in - ()
Sea Level Pressure  
Sea Level Pressure 29.94 in    
Wind  
Wind Speed 6 mph ()    
Max Wind Speed 16 mph    
Max Gust Speed -    
Visibility 4.2 miles    
Events      
T = Trace of Precipitation, MM = Missing Value Source: Averaged Metar Reports

Daily Weather History Graph

Daily Weather History Graph

Search for Another Location

Airport or City:

Astronomy

Feb. 16, 2013 Rise Set
Actual Time 6:20 AM +0330 5:37 PM +0330
Civil Twilight 5:56 AM +0330 6:00 PM +0330
Nautical Twilight 5:29 AM +0330 6:28 PM +0330
Astronomical Twilight 5:02 AM +0330 6:55 PM +0330
Moon 9:56 AM +0330 (2/16) 11:31 PM +0330 (2/16)
Length of Visible Light 12h 04m
Length of Day
11h 16m
Waxing Crescent, 36% of the Moon is Illuminated
Feb 16
Waxing Crescent
Feb 18
First Quarter
Feb 25
Full
Mar 5
Last Quarter
Mar 11
New

Hourly Weather History & Observations

Time (+0330) Temp. Dew Point Humidity Pressure Visibility Wind Dir Wind Speed Gust Speed Precip Events Conditions
12:00 AM 55.4 °F 46.4 °F 72% 30.01 in 3.7 mi Calm Calm - N/A   Clear
12:30 AM 55.4 °F 46.4 °F 72% 30.01 in 3.7 mi Calm Calm - N/A   Clear
1:30 AM 55.4 °F 46.4 °F 72% 29.98 in 3.7 mi North 4.6 mph - N/A   Clear
2:30 AM 55.4 °F 44.6 °F 67% 29.98 in 3.7 mi NNW 9.2 mph - N/A   Clear
3:30 AM 57 °F 45 °F 53% 30.00 in 4 mi North 4.5 mph - -   Haze
3:30 AM 57.2 °F 44.6 °F 63% 29.98 in 3.7 mi North 4.6 mph - N/A   Clear
4:30 AM 53.6 °F 42.8 °F 67% 29.98 in 3.7 mi WNW 4.6 mph - N/A   Clear
5:30 AM 51.8 °F 44.6 °F 76% 29.98 in 3.1 mi NNW 4.6 mph - N/A   Haze
6:00 AM 53.6 °F 42.8 °F 67% 29.98 in 3.1 mi NNW 4.6 mph - N/A   Haze
6:30 AM 51.8 °F 42.8 °F 71% 30.01 in 3.1 mi NNW 4.6 mph - N/A   Haze
7:20 AM 59.0 °F 46.4 °F 63% 30.01 in 3.1 mi NE 4.6 mph - N/A   Haze
7:30 AM 59.0 °F 46.4 °F 63% 30.01 in 3.1 mi NE 4.6 mph - N/A   Haze
8:00 AM 62.6 °F 46.4 °F 55% 30.01 in 3.1 mi NNE 6.9 mph - N/A   Haze
8:20 AM 66.2 °F 44.6 °F 46% 30.04 in 4.3 mi NNE 6.9 mph - N/A   Clear
8:30 AM 66.2 °F 44.6 °F 46% 30.04 in 4.3 mi NNE 6.9 mph - N/A   Clear
9:00 AM 69.8 °F 41.0 °F 35% 30.04 in 4.3 mi NNE 4.6 mph - N/A   Clear
9:20 AM 71.6 °F 41.0 °F 33% 30.04 in 5.0 mi NNE 4.6 mph - N/A   Clear
9:30 AM 72 °F 42 °F 22% 30.05 in 5 mi NNE 4.5 mph - -  
9:30 AM 71.6 °F 41.0 °F 33% 30.04 in 5.0 mi NNE 4.6 mph - N/A   Clear
10:00 AM 73.4 °F 41.0 °F 31% 30.04 in - East 9.2 mph - N/A   Clear
10:30 AM 75.2 °F 39.2 °F 27% 30.04 in - ENE 6.9 mph - N/A   Clear
11:00 AM 75.2 °F 42.8 °F 31% 30.01 in - SE 4.6 mph - N/A   Clear
11:30 AM 77.0 °F 51.8 °F 41% 30.01 in - SE 11.5 mph - N/A   Clear
12:00 PM 77.0 °F 46.4 °F 34% 29.98 in - South 11.5 mph - N/A   Clear
12:30 PM 77.0 °F 41.0 °F 28% 29.98 in - South 11.5 mph - N/A   Clear
1:00 PM 77.0 °F 48.2 °F 36% 29.95 in - South 13.8 mph - N/A   Clear
1:20 PM 77.0 °F 44.6 °F 32% 29.92 in - South 13.8 mph - N/A   Clear
1:30 PM 77.0 °F 44.6 °F 32% 29.92 in - South 13.8 mph - N/A   Clear
2:00 PM 77.0 °F 41.0 °F 28% 29.92 in - South 11.5 mph - N/A   Clear
2:20 PM 77.0 °F 48.2 °F 36% 29.89 in - South 11.5 mph - N/A   Clear
2:30 PM 77.0 °F 48.2 °F 36% 29.89 in - South 11.5 mph - N/A   Clear
3:00 PM 77.0 °F 53.6 °F 44% 29.89 in - South 11.5 mph - N/A   Clear
3:20 PM 75.2 °F 55.4 °F 50% 29.89 in - South 11.5 mph - N/A   Clear
3:30 PM 75 °F 55 °F 40% 29.90 in 6 mi South 11.2 mph - -  
3:30 PM 75.2 °F 55.4 °F 50% 29.89 in - South 11.5 mph - N/A   Clear
4:00 PM 75.2 °F 53.6 °F 47% 29.86 in - South 13.8 mph - N/A   Clear
4:20 PM 75.2 °F 53.6 °F 47% 29.86 in - South 13.8 mph - N/A   Clear
4:30 PM 75.2 °F 53.6 °F 47% 29.86 in - South 13.8 mph - N/A   Clear
5:00 PM 73.4 °F 55.4 °F 53% 29.86 in - SSW 16.1 mph - N/A   Clear
5:20 PM 73.4 °F 55.4 °F 53% 29.86 in - SSW 16.1 mph - N/A   Clear
5:30 PM 73.4 °F 55.4 °F 53% 29.86 in - SSW 16.1 mph - N/A   Clear
6:00 PM 71.6 °F 59.0 °F 64% 29.86 in 5.0 mi South 13.8 mph - N/A   Unknown
6:20 PM 71.6 °F 57.2 °F 60% 29.86 in 5.0 mi South 13.8 mph - N/A   Unknown
6:30 PM 71.6 °F 57.2 °F 60% 29.86 in 5.0 mi South 13.8 mph - N/A   Unknown
7:00 PM 71.6 °F 57.2 °F 60% 29.86 in 5.0 mi SSW 11.5 mph - N/A   Unknown
7:20 PM 69.8 °F 59.0 °F 68% 29.89 in 4.3 mi South 9.2 mph - N/A   Unknown
7:30 PM 69.8 °F 59.0 °F 68% 29.89 in 4.3 mi South 9.2 mph - N/A   Unknown
8:00 PM 69.8 °F 59.0 °F 68% 29.89 in 4.3 mi SSW 6.9 mph - N/A   Unknown
8:20 PM 69.8 °F 57.2 °F 64% 29.89 in 4.3 mi SW 6.9 mph - N/A   Unknown
8:30 PM 69.8 °F 57.2 °F 64% 29.89 in 4.3 mi SW 6.9 mph - N/A   Unknown
9:00 PM 69.8 °F 57.2 °F 64% 29.89 in 4.3 mi SW 4.6 mph - N/A   Unknown
9:20 PM 68.0 °F 59.0 °F 73% 29.89 in 4.3 mi WSW 4.6 mph - N/A   Unknown
9:30 PM 69 °F 59 °F 63% 29.92 in 4 mi WSW 4.5 mph - -   Haze
9:30 PM 68.0 °F 59.0 °F 73% 29.89 in 4.3 mi WSW 4.6 mph - N/A   Unknown
10:00 PM 68.0 °F 59.0 °F 73% 29.89 in 4.3 mi WSW 4.6 mph - N/A   Unknown
10:30 PM 66.2 °F 59.0 °F 78% 29.89 in 4.3 mi West 4.6 mph - N/A   Unknown
11:00 PM 64.4 °F 57.2 °F 77% 29.89 in 4.3 mi WNW 4.6 mph - N/A   Unknown
11:30 PM 62.6 °F 59.0 °F 88% 29.89 in 4.3 mi North 4.6 mph - N/A   Unknown